TimeCST,TemperatureF,Dew PointF,Humidity,Sea Level PressureIn,VisibilityMPH,Wind Direction,Wind SpeedMPH,Gust SpeedMPH,PrecipitationIn,Events,Conditions,WindDirDegrees,DateUTC
1:57 AM,38.8,37.6,95,30.29,8.0,NNE,5.8,-,N/A,,Partly Cloudy,30,2012-12-14 07:57:00
2:29 AM,41.0,41.0,100,30.27,6.0,ENE,8.1,-,N/A,,Mostly Cloudy,60,2012-12-14 08:29:00
2:56 AM,43.3,42.1,95,30.28,6.0,ENE,9.2,-,N/A,,Overcast,60,2012-12-14 08:56:00
3:18 AM,42.8,42.8,100,30.27,2.5,ENE,10.4,-,N/A,,Overcast,70,2012-12-14 09:18:00
3:40 AM,42.8,41.0,93,30.27,2.0,ENE,11.5,-,N/A,,Overcast,70,2012-12-14 09:40:00
3:57 AM,43.0,41.7,95,30.28,1.5,ENE,10.4,-,N/A,,Overcast,60,2012-12-14 09:57:00
4:55 AM,42.8,41.7,96,30.29,1.5,East,8.1,-,N/A,,Overcast,80,2012-12-14 10:55:00
5:56 AM,43.0,41.9,96,30.30,1.5,NE,9.2,-,N/A,,Overcast,50,2012-12-14 11:56:00
6:56 AM,43.5,42.4,96,30.32,2.0,NE,8.1,-,N/A,,Overcast,40,2012-12-14 12:56:00
7:31 AM,44.6,42.8,93,30.31,2.2,ENE,5.8,-,N/A,,Overcast,70,2012-12-14 13:31:00
7:55 AM,44.1,43.0,96,30.34,2.5,NNE,9.2,-,N/A,,Overcast,30,2012-12-14 13:55:00
8:08 AM,44.6,42.8,93,30.32,3.0,ENE,6.9,-,N/A,,Overcast,60,2012-12-14 14:08:00
8:47 AM,44.6,44.6,100,30.33,4.0,NE,9.2,-,N/A,,Overcast,50,2012-12-14 14:47:00
8:55 AM,45.0,43.7,95,30.35,4.0,ENE,10.4,-,N/A,,Overcast,60,2012-12-14 14:55:00
9:55 AM,46.0,44.2,93,30.34,4.0,ENE,8.1,-,N/A,,Overcast,60,2012-12-14 15:55:00
10:16 AM,46.4,44.6,93,30.32,4.0,NE,9.2,-,N/A,,Overcast,40,2012-12-14 16:16:00
10:55 AM,47.3,44.6,90,30.31,7.0,NE,8.1,-,N/A,,Overcast,40,2012-12-14 16:55:00
11:55 AM,48.0,44.6,88,30.30,10.0,NNE,6.9,-,N/A,,Overcast,30,2012-12-14 17:55:00
12:13 PM,48.2,44.6,87,30.28,10.0,Variable,3.5,-,N/A,,Overcast,0,2012-12-14 18:13:00
12:55 PM,48.7,44.6,86,30.27,10.0,ENE,5.8,-,N/A,,Overcast,60,2012-12-14 18:55:00
1:55 PM,49.8,44.4,82,30.24,10.0,Variable,3.5,-,N/A,,Overcast,0,2012-12-14 19:55:00
2:55 PM,50.2,44.2,80,30.25,10.0,SW,3.5,-,N/A,,Overcast,220,2012-12-14 20:55:00
3:55 PM,49.8,44.6,82,30.23,10.0,North,5.8,-,N/A,,Mostly Cloudy,10,2012-12-14 21:55:00
4:55 PM,49.3,44.4,83,30.24,10.0,Calm,Calm,-,N/A,,Mostly Cloudy,0,2012-12-14 22:55:00
5:55 PM,49.1,44.6,84,30.23,10.0,Calm,Calm,-,N/A,,Mostly Cloudy,0,2012-12-14 23:55:00
6:16 PM,48.2,44.6,87,30.23,10.0,Calm,Calm,-,N/A,,Mostly Cloudy,0,2012-12-15 00:16:00
6:55 PM,48.6,45.0,87,30.22,10.0,Calm,Calm,-,N/A,,Overcast,0,2012-12-15 00:55:00
7:44 PM,48.2,44.6,87,30.22,10.0,WNW,3.5,-,N/A,,Mostly Cloudy,300,2012-12-15 01:44:00
7:55 PM,46.9,44.2,90,30.22,10.0,Calm,Calm,-,N/A,,Mostly Cloudy,0,2012-12-15 01:55:00
8:26 PM,46.4,44.6,93,30.18,10.0,Calm,Calm,-,N/A,,Mostly Cloudy,0,2012-12-15 02:26:00
8:55 PM,45.5,43.7,93,30.19,10.0,Calm,Calm,-,N/A,,Scattered Clouds,0,2012-12-15 02:55:00
9:55 PM,46.0,44.6,95,30.18,7.0,NE,4.6,-,N/A,,Mostly Cloudy,50,2012-12-15 03:55:00
10:55 PM,47.1,45.7,95,30.19,7.0,Calm,Calm,-,N/A,,Overcast,0,2012-12-15 04:55:00
11:55 PM,46.8,45.7,96,30.18,7.0,NNE,2.3,-,N/A,,Mostly Cloudy,30,2012-12-15 05:55:00